Location: Newark
(46.2167°N, 5.8664°E)
Time: 13:41:04
(UTC+00:00)

N. Korean satellite - Pass Details

Date: 22 October 2019
Orbit: 456 x 506 km, 97.2° (Epoch: 17 November)

Event Time Altitude Azimuth Distance (km) Brightness Sun altitude
Rises 17:41:47 0° 208° (SSW) 2,465 10.6 -11.6°
Reaches altitude 10° 17:44:33 10° 234° (SW) 1,602 10.1 -12.1°
Maximum altitude 17:46:31 14° 269° (W) 1,359 10.2 -12.4°
Drops below altitude 10° 17:48:30 10° 304° (NW) 1,620 10.0 -12.7°
Sets 17:51:20 0° 330° (NNW) 2,511 10.6 -13.2°
